STARLINK-32837, 62812

Orbit data source: Space-Track

STARLINK-32837, 62812 is a payload satellite owned by SpaceX/Seattle (US) in LEO that was launched on Fri, 24 Jan 2025 UTC via an FALCON 9 launch vehicle from the Air Force Western Test Range (AFWTR). Payload-class satellites include a variety of spacecraft equipped with specific instruments for various scientific and technological missions. These include communications satellites like Starlink; space stations such as the ISS; scientific satellites like the Hubble; Earth observation satellites from companies like Planet Labs, Umbra, and HawkEye 360; GPS; miniature CubeSats for education and research; and military/defense satellites.

Loading next visibility...
Identifier
62812, 2025-018G
Orbit
LEO
Last TLE update
10 hours ago
Origin
Manufacturer
SpaceX/Seattle
Mission
Operational Commercial Communications
Bus & Motor
STARLINK V2M, Unknown motor
Mass
730 kg wet, ~700 kg dry
Launch date (UTC)
2025-01-24 (3 months ago)
Launch vehicle
FALCON 9
Launch site
Air Force Western Test Range (AFWTR)
Object type
Payload
Rocket body
Debris
Shape & HBR
Box + 2 Pan, 29 m
Radar Cross Section
33.884 m², Large (>1 m²)

Expand to show TLE details & history

TLE from 10 hours ago
0 STARLINK-32837
1 62812U 25018G   25128.79685916  .00000078  00000-0  11940-4 0  9998
2 62812  53.1610 287.5205 0001229 104.6684 255.4457 15.39622907 16473
Epoch: 2025-05-08T19:07Z
Definitive object data (Epoch: 2025-05-08T19:07:28.631Z)
Latitude
-0.00003°
Longitude
133.78897°
Altitude
448.338 km
Speed
7.644 km/s
True Right ascension
19h 10m 04s
True Declination
0° 00' 00"
Sunlit
Object was in full shadow at TLE epoch
Visualization TLE readout
Latitude
14.799°
Longitude
-59.53505°
Altitude
446.928 km
Speed
7.647 km/s
Apparent Right ascension
04h 13m 29s
Apparent Declination
-14° 14' 31"
Sunlit
Object is in daylight
Visualization observer readout
Local Sidereal Time
13:18:50
Azimuth
291.326° WNW
Elevation
-44.081°
Doppler factor
1
Orbital elements
Apogee altitude
448.32 km
Perigee altitude
446.642 km
Semi-major axis
6,825.618 km
Eccentricity
0.0001229
Inclination
53.161°
RAAN
287.5205°
Arg. of periapsis
104.6684°
True anomaly
255.43207°
Mean anomaly
255.4457°
Eccentric anomaly
255.43888°
Mean motion
3.84884 °/min
BSTAR
0.00001194
Orbital period
93.53 mins
Loading maneuver chart data...
Loading SW <> Apogee altitude chart data...
Loading historical data...
Loading historical data...
Loading historical data...
Loading historical data...
Loading historical data...
Loading historical data...
Loading historical data...

STARLINK-32837 Visibility forecast

Observer location: undefined°, undefined°

Span
Click to sort rows by Start time (UTC) header in descending order
Start Az.
Max El. time (UTC)
Max El. Az.
Max El.
End time (UTC)
End Az.
5 mins2025-05-09 12:25:12.846Z182.823° SSW2025-05-09 12:27:12.846Z143.015° SSE22.699°2025-05-09 12:30:12.846Z77.011° E
4 mins2025-05-09 14:03:12.846Z277.193° WNW2025-05-09 14:05:12.846Z344.987° N29.342°2025-05-09 14:07:12.846Z29.084° NE
5 mins2025-05-09 18:57:12.846Z333.828° NNW2025-05-09 19:00:12.846Z41.103° NE23.054°2025-05-09 19:02:12.846Z81.627° E
5 mins2025-05-09 20:35:12.846Z285.997° WNW2025-05-09 20:37:12.846Z224.578° SW33.062°2025-05-09 20:40:12.846Z156.466° SSE
|